Wind_Speed
63 64 65 65 67 73 74 73 68 59 63 64 67 66 58 55 59 55 51 52 52 52 48 45 41 38 36 33 31 32 33 31 32 32 32 32 31 31 30 31 31 32 33 35
66 70 66 64 67 77 69 81 76 70 48 63 67 66 60 61 61 57 59 53 51 50 47 43 40 36 35 33 32 33 33 34 35 35 34 33 33 33 33 34 35 35 36 38
69 62 51 55 57 62 49 68 74 76 59 56 69 69 67 70 68 60 57 59 58 49 43 42 39 37 38 38 36 35 36 36 36 36 36 36 37 37 38 37 38 38 38 39
46 35 42 50 56 38 69 60 72 79 54 64 58 66 66 62 67 61 57 53 53 53 50 47 45 42 38 38 39 38 39 39 39 38 39 39 40 40 41 41 39 40 41 41
27 23 32 41 61 33 51 59 61 83 62 54 58 65 69 64 60 61 56 57 54 50 50 47 46 39 38 41 41 40 41 41 41 42 42 42 43 43 42 42 43 43 43 49
17 24 29 27 55 52 49 43 50 63 79 59 57 46 60 72 64 61 60 56 53 53 53 51 42 41 39 39 38 38 37 37 42 43 44 44 43 45 43 46 45 42 46 43
21 27 31 17 27 41 41 45 48 52 56 36 46 50 68 56 65 56 54 50 51 46 53 49 42 43 44 42 39 37 35 35 29 42 40 40 35 37 35 40 46 45 44 50
16 30 43 4 9 27 49 50 51 46 43 32 36 49 49 58 57 67 52 45 55 51 51 51 49 45 41 42 45 43 43 43 41 35 38 36 49 45 37 47 43 50 43 39
18 30 38 16 16 12 34 41 48 53 34 24 30 45 41 49 49 52 57 56 50 48 47 53 52 47 51 47 46 48 43 49 47 42 36 44 36 43 44 48 50 43 41 43
14 28 43 15 13 8 18 31 41 34 31 19 30 38 42 47 41 50 46 49 52 47 42 40 49 48 51 50 52 42 49 51 50 43 52 42 45 49 51 47 48 44 46 46
12 24 27 15 17 18 14 34 34 22 21 8 17 28 36 45 42 40 43 44 46 51 52 53 51 53 46 45 47 54 46 42 38 39 43 47 46 40 39 36 33 42 44 47
7 10 27 35 13 27 24 20 48 37 18 3 17 30 41 38 36 35 37 43 42 38 39 43 44 46 49 44 43 44 42 43 44 46 43 40 36 33 31 34 40 45 47 51
2 6 5 13 25 27 21 27 28 34 26 9 17 26 25 29 33 35 35 36 39 36 33 34 38 37 50 44 31 29 36 45 49 42 37 30 29 30 33 40 44 48 52 52
9 6 4 6 9 21 32 25 33 36 33 24 4 30 36 35 35 38 30 37 38 39 36 35 37 40 26 26 31 34 34 38 35 29 28 30 35 40 42 45 47 47 46 47
13 12 13 7 6 14 25 33 34 29 24 20 8 20 31 38 38 41 41 33 28 31 23 24 26 22 16 18 20 23 27 27 29 33 36 39 39 40 41 41 41 43 47 52
13 11 15 9 5 15 13 21 18 9 5 2 8 11 20 26 24 27 31 33 31 30 22 14 12 11 16 20 24 27 29 31 33 35 38 38 38 35 37 40 44 48 53 57
19 15 17 12 10 11 15 8 6 6 7 10 12 10 11 7 19 17 17 16 13 10 12 14 17 23 27 29 29 30 31 33 34 34 33 32 34 37 41 45 50 54 57 55
20 14 17 13 11 10 11 13 10 11 14 11 16 13 14 18 14 13 14 13 15 17 20 22 24 26 27 28 29 31 32 32 30 31 32 35 38 42 47 51 55 55 53 56
27 21 19 14 10 8 6 7 13 18 16 13 12 13 11 8 10 17 19 19 22 23 22 24 25 27 28 28 28 29 29 29 30 33 36 39 43 48 52 55 56 52 51 50
26 28 25 19 12 10 3 5 8 15 19 19 17 16 15 16 18 24 25 24 24 24 24 23 24 23 23 23 24 27 29 32 34 37 40 46 50 52 54 53 48 46 47 49
12 25 25 26 18 16 11 10 6 15 16 17 22 22 20 19 21 26 25 25 24 24 24 23 22 23 23 25 27 30 32 36 38 42 47 50 50 45 44 43 43 46 50 55
10 13 18 23 23 19 14 14 11 12 17 17 19 21 21 22 22 21 20 20 21 22 23 22 22 23 25 27 30 33 36 40 45 49 49 41 36 38 39 42 48 51 57 60
12 13 14 15 18 15 13 16 15 13 15 16 16 17 19 20 20 20 19 19 20 21 21 20 22 24 27 30 34 37 42 43 40 33 32 33 36 38 42 48 53 57 56 57
11 13 15 16 15 16 16 18 19 18 16 16 14 15 15 16 16 16 17 18 19 19 21 22 25 28 30 34 38 37 31 30 30 30 31 36 39 43 49 53 52 53 56 58
9 12 17 17 17 17 18 17 20 17 15 13 14 14 14 14 14 15 18 18 20 21 23 26 30 34 36 33 28 27 29 31 30 31 36 41 45 48 47 49 52 54 59 63
7 14 18 18 14 14 12 12 11 11 13 14 15 14 13 13 14 17 19 19 22 26 29 31 29 25 24 25 28 27 27 30 33 37 43 45 43 46 49 50 55 60 64 65
Wind_Direction
270 269 268 262 253 247 238 234 230 227 233 229 236 236 234 237 228 226 229 230 232 236 241 242 240 237 237 239 241 243 247 247 249 248 249 252 255 260 264 269 272 275 278 281
277 277 272 258 241 235 235 228 224 214 235 231 232 233 234 225 230 234 231 232 234 234 237 240 237 238 237 236 237 241 244 245 246 248 249 252 257 261 265 268 272 276 279 283
282 277 261 245 224 225 229 229 223 217 232 237 228 228 227 226 233 225 232 231 231 230 232 235 234 233 235 234 233 237 242 245 248 250 253 256 258 263 267 271 273 275 280 284
277 272 251 229 207 224 217 222 219 214 224 222 223 231 229 231 232 232 229 225 229 228 226 231 234 233 233 237 238 239 244 248 253 255 258 261 263 265 267 270 275 279 280 283
282 271 240 229 209 216 214 215 222 216 221 209 204 225 231 223 218 227 217 229 225 226 225 231 229 232 235 238 239 243 246 249 254 258 259 259 262 266 270 275 277 279 280 283
280 251 230 225 215 220 217 223 233 226 230 232 206 220 222 223 225 225 227 229 227 227 231 232 225 226 231 240 239 242 247 258 260 259 258 264 271 276 277 277 274 278 291 273
266 225 201 165 211 239 231 214 225 235 229 250 228 218 221 219 223 224 231 228 222 229 233 233 235 243 237 234 239 242 247 259 239 260 258 275 263 263 272 271 280 281 286 276
255 224 214 190 199 214 230 220 221 227 227 241 236 226 216 221 225 222 223 225 227 224 230 236 245 239 242 246 243 244 249 249 245 252 264 253 266 261 251 274 277 288 284 288
254 235 223 247 200 217 229 226 229 222 232 250 239 223 225 222 224 227 227 227 226 231 233 235 234 235 250 248 249 250 256 255 258 258 250 263 271 270 278 289 280 280 280 282
250 229 212 236 166 185 203 214 224 231 241 237 208 221 223 216 220 222 228 227 229 228 225 232 241 253 247 247 252 256 252 261 262 258 261 259 258 277 282 276 274 275 274 282
262 227 205 201 220 226 190 193 199 204 219 206 183 211 221 219 224 222 228 222 229 230 235 232 233 247 241 250 245 256 255 255 237 253 276 273 276 271 264 269 284 283 283 286
273 237 214 221 189 210 143 186 221 219 231 246 167 198 220 218 220 222 222 229 231 227 235 232 236 238 245 245 249 259 250 243 262 271 266 265 262 271 276 281 280 283 287 291
39 96 189 223 229 221 188 211 203 195 220 81 167 170 203 217 221 223 232 227 228 222 215 219 225 226 238 239 236 239 242 247 259 260 258 263 266 270 275 278 282 285 288 291
167 179 220 210 224 224 241 214 209 223 225 242 163 167 166 170 183 192 198 209 208 210 203 208 213 214 212 226 226 237 246 251 256 259 261 266 269 272 277 282 284 288 289 291
186 159 161 158 175 211 226 225 227 236 258 278 285 170 168 161 166 178 182 170 189 191 193 205 202 210 226 237 245 246 243 247 255 261 266 271 278 281 282 285 287 287 289 289
192 163 136 143 159 176 206 228 246 251 147 33 297 176 148 151 154 159 174 181 187 190 194 201 214 228 230 235 237 240 245 253 260 265 273 276 278 282 284 284 286 288 289 290
202 177 141 166 172 181 172 169 189 189 163 135 169 184 153 181 134 139 143 151 157 167 183 199 211 220 226 235 241 250 258 262 267 271 273 275 278 279 282 285 286 287 289 295
200 189 152 157 154 166 157 180 186 171 160 148 147 158 138 193 202 190 172 174 186 198 210 220 226 232 239 246 253 260 265 267 266 268 272 275 279 281 283 285 287 291 297 302
214 200 207 183 164 157 130 143 183 195 180 178 187 189 195 182 188 213 221 216 211 218 226 235 240 245 250 256 258 258 258 260 265 268 273 278 283 286 289 291 295 298 298 298
216 224 223 216 215 187 186 185 194 186 186 193 203 204 205 208 216 225 220 223 222 226 229 239 245 246 248 252 256 258 261 264 269 276 282 283 285 289 292 295 297 297 297 297
227 223 227 231 235 234 252 244 199 189 189 192 198 201 207 216 223 232 229 229 231 231 229 233 238 242 246 251 255 261 266 271 276 280 282 285 291 292 292 293 297 299 303 309
237 222 207 222 230 244 237 209 193 201 204 189 189 198 201 207 216 221 222 221 224 224 228 237 244 249 255 261 266 270 274 277 280 281 286 289 288 288 294 300 302 306 306 307
251 229 209 199 217 211 202 193 177 184 193 197 200 201 201 206 213 217 221 224 225 225 230 238 250 258 262 267 270 275 278 283 287 291 292 295 294 300 303 303 303 303 306 308
239 228 202 191 194 191 189 187 182 178 186 190 192 204 209 215 217 223 229 231 239 246 252 255 259 264 270 275 280 285 290 290 292 294 291 294 302 303 300 300 303 306 307 308
219 214 189 181 186 188 189 186 188 186 194 194 196 202 212 222 228 238 245 248 256 262 267 272 276 280 284 284 286 288 290 292 292 291 295 299 300 300 300 302 305 305 307 309
166 168 167 180 183 185 186 188 187 190 203 212 218 221 226 236 246 254 261 269 274 277 280 282 281 280 283 288 292 292 291 290 293 296 298 298 299 302 303 303 305 307 308 309
Height
5658 5662 5664 5662 5664 5670 5675 5683 5691 5704 5713 5715 5719 5727 5739 5746 5751 5756 5763 5769 5776 5783 5788 5791 5796 5799 5802 5807 5810 5811 5814 5816 5819 5819 5821 5822 5824 5825 5826 5825 5823 5823 5822 5821
5637 5639 5638 5638 5642 5649 5655 5664 5677 5691 5699 5703 5709 5714 5725 5732 5739 5747 5754 5761 5768 5773 5779 5785 5789 5794 5798 5800 5802 5804 5807 5809 5811 5813 5814 5815 5816 5818 5818 5818 5817 5816 5814 5814
5612 5614 5611 5616 5627 5635 5645 5651 5666 5677 5684 5691 5696 5699 5709 5719 5727 5736 5743 5749 5757 5765 5771 5777 5781 5785 5789 5793 5795 5797 5800 5803 5805 5806 5808 5809 5809 5809 5810 5810 5809 5808 5806 5805
5596 5599 5595 5601 5613 5624 5633 5640 5652 5663 5673 5681 5679 5684 5694 5706 5714 5723 5731 5739 5747 5753 5761 5768 5772 5776 5780 5785 5788 5790 5793 5795 5797 5799 5800 5801 5801 5801 5801 5801 5801 5800 5797 5795
5591 5591 5591 5594 5605 5612 5623 5636 5644 5650 5655 5661 5668 5671 5681 5694 5699 5711 5721 5732 5740 5746 5752 5758 5763 5769 5772 5777 5780 5783 5785 5789 5791 5791 5792 5792 5792 5793 5794 5794 5793 5790 5787 5785
5588 5587 5588 5594 5602 5608 5620 5626 5636 5641 5639 5645 5660 5661 5665 5678 5694 5701 5712 5722 5731 5738 5744 5751 5754 5759 5764 5769 5773 5776 5779 5783 5783 5783 5784 5786 5785 5786 5786 5782 5781 5780 5777 5772
5586 5586 5585 5591 5601 5607 5611 5620 5625 5631 5634 5642 5652 5651 5660 5674 5686 5697 5707 5715 5722 5729 5735 5741 5746 5751 5756 5761 5765 5768 5772 5774 5768 5774 5776 5776 5774 5772 5775 5773 5771 5769 5768 5765
5584 5583 5585 5588 5597 5604 5608 5615 5621 5626 5637 5640 5641 5641 5653 5664 5677 5686 5697 5704 5713 5720 5728 5733 5739 5743 5748 5752 5756 5760 5764 5767 5767 5765 5767 5770 5769 5768 5761 5763 5761 5759 5757 5755
5584 5580 5584 5587 5595 5599 5604 5611 5617 5628 5636 5632 5631 5640 5649 5657 5667 5673 5688 5697 5704 5712 5719 5725 5731 5737 5740 5744 5748 5753 5755 5758 5759 5759 5760 5761 5759 5758 5756 5754 5751 5749 5746 5743
5583 5580 5584 5588 5592 5596 5601 5609 5617 5622 5629 5628 5634 5637 5642 5652 5662 5671 5681 5688 5697 5703 5710 5718 5725 5729 5733 5738 5742 5744 5746 5748 5749 5749 5750 5750 5748 5747 5747 5744 5741 5739 5735 5732
5583 5581 5587 5588 5590 5594 5598 5607 5612 5623 5630 5627 5623 5626 5636 5648 5657 5665 5674 5682 5690 5698 5704 5712 5718 5722 5725 5729 5734 5736 5738 5739 5739 5737 5739 5738 5738 5736 5735 5734 5733 5731 5728 5724
5582 5583 5586 5589 5592 5595 5594 5598 5608 5620 5622 5623 5621 5627 5633 5643 5651 5659 5666 5674 5681 5689 5696 5702 5707 5712 5717 5722 5723 5724 5728 5729 5728 5730 5729 5728 5728 5728 5727 5726 5724 5722 5718 5715
5582 5584 5587 5590 5594 5596 5594 5600 5606 5615 5618 5620 5623 5628 5633 5638 5646 5654 5660 5666 5674 5681 5687 5692 5698 5704 5710 5712 5713 5717 5719 5721 5723 5722 5721 5720 5720 5720 5719 5718 5715 5713 5710 5705
5581 5584 5585 5588 5590 5594 5594 5598 5607 5611 5620 5622 5625 5623 5628 5633 5641 5649 5656 5662 5669 5674 5680 5685 5691 5696 5699 5701 5705 5709 5711 5714 5714 5714 5714 5714 5713 5712 5711 5709 5706 5703 5699 5695
5579 5581 5583 5584 5588 5593 5596 5601 5605 5610 5616 5618 5622 5624 5625 5629 5635 5644 5651 5658 5664 5669 5675 5681 5685 5689 5693 5697 5701 5703 5706 5708 5708 5708 5708 5707 5705 5704 5702 5699 5696 5694 5690 5685
5578 5581 5582 5586 5589 5591 5596 5601 5604 5610 5612 5614 5620 5627 5627 5630 5636 5640 5647 5654 5659 5664 5670 5675 5680 5685 5689 5693 5695 5697 5699 5700 5701 5700 5700 5699 5697 5694 5692 5691 5687 5683 5678 5672
5577 5578 5582 5584 5586 5590 5594 5598 5603 5606 5610 5615 5621 5627 5629 5633 5634 5639 5644 5650 5656 5662 5667 5672 5677 5681 5684 5687 5689 5691 5691 5692 5693 5693 5691 5689 5687 5686 5684 5680 5676 5671 5666 5661
5577 5578 5582 5586 5588 5590 5591 5595 5599 5603 5607 5613 5618 5625 5629 5634 5636 5640 5645 5650 5656 5660 5664 5668 5672 5675 5677 5680 5682 5683 5684 5684 5684 5683 5682 5682 5680 5676 5673 5668 5664 5660 5654 5648
5577 5580 5583 5586 5590 5594 5595 5596 5599 5603 5607 5611 5616 5622 5627 5632 5638 5640 5643 5648 5653 5657 5660 5664 5667 5670 5672 5674 5675 5677 5677 5677 5677 5676 5675 5673 5669 5665 5661 5658 5653 5648 5643 5638
5574 5577 5582 5586 5589 5592 5594 5595 5599 5602 5606 5612 5617 5622 5626 5631 5636 5640 5640 5645 5649 5653 5656 5660 5663 5666 5668 5669 5670 5671 5671 5670 5669 5668 5666 5663 5659 5655 5651 5647 5643 5638 5634 5629
5571 5574 5579 5584 5588 5591 5595 5597 5598 5603 5610 5611 5615 5620 5624 5629 5633 5637 5639 5642 5646 5649 5651 5654 5656 5658 5660 5662 5663 5664 5663 5662 5661 5659 5656 5653 5650 5645 5640 5637 5633 5629 5623 5616
5570 5572 5577 5582 5586 5589 5591 5595 5598 5602 5607 5611 5614 5617 5621 5625 5630 5635 5637 5639 5643 5646 5649 5650 5652 5654 5656 5656 5656 5656 5654 5653 5651 5649 5646 5643 5639 5634 5630 5627 5623 5617 5610 5604
5568 5570 5573 5580 5584 5588 5590 5593 5596 5602 5607 5611 5614 5616 5620 5624 5627 5632 5635 5637 5640 5642 5645 5646 5648 5650 5650 5649 5649 5647 5645 5644 5641 5638 5635 5631 5628 5625 5622 5617 5612 5606 5600 5591
5564 5566 5572 5578 5582 5586 5590 5595 5598 5602 5608 5609 5611 5615 5619 5623 5625 5630 5635 5637 5639 5640 5641 5640 5641 5642 5641 5641 5639 5637 5635 5633 5631 5628 5627 5624 5620 5616 5612 5607 5600 5593 5585 5577
5561 5564 5571 5577 5582 5586 5591 5595 5599 5600 5603 5607 5611 5614 5618 5622 5625 5629 5633 5634 5635 5636 5636 5637 5637 5637 5635 5633 5632 5630 5627 5625 5624 5622 5619 5615 5611 5606 5601 5594 5587 5579 5572 5563
5560 5565 5572 5577 5583 5588 5591 5595 5598 5600 5603 5607 5610 5613 5616 5620 5621 5625 5628 5628 5629 5630 5631 5631 5630 5629 5628 5627 5626 5623 5621 5619 5617 5614 5610 5606 5600 5594 5588 5581 5574 5567 5558 5550